Year,Month,Day,Hour,Minute,Value (Times are PST for temperature in C)
2017,10,20,00,00,8.80
2017,10,20,00,01,8.80
2017,10,20,00,02,8.80
2017,10,20,00,03,8.80
2017,10,20,00,04,8.80
2017,10,20,00,05,8.80
2017,10,20,00,06,8.80
2017,10,20,00,07,8.80
2017,10,20,00,08,8.80
2017,10,20,00,09,8.70
2017,10,20,00,10,8.70
2017,10,20,00,11,8.70
2017,10,20,00,12,8.70
2017,10,20,00,13,8.70
2017,10,20,00,14,8.70
2017,10,20,00,15,8.70
2017,10,20,00,16,8.70
2017,10,20,00,17,8.70
2017,10,20,00,18,8.70
2017,10,20,00,19,8.70
2017,10,20,00,20,8.70
2017,10,20,00,21,8.60
2017,10,20,00,22,8.60
2017,10,20,00,23,8.60
2017,10,20,00,24,8.60
2017,10,20,00,25,8.60
2017,10,20,00,26,8.60
2017,10,20,00,27,8.60
2017,10,20,00,28,8.60
2017,10,20,00,29,8.60
2017,10,20,00,30,8.60
2017,10,20,00,31,8.60
2017,10,20,00,32,8.60
2017,10,20,00,33,8.70
2017,10,20,00,34,8.60
2017,10,20,00,35,8.60
2017,10,20,00,36,8.60
2017,10,20,00,37,8.60
2017,10,20,00,38,8.60
2017,10,20,00,39,8.60
2017,10,20,00,40,8.50
2017,10,20,00,41,8.50
2017,10,20,00,42,8.50
2017,10,20,00,43,8.50
2017,10,20,00,44,8.50
2017,10,20,00,45,8.50
2017,10,20,00,46,8.50
2017,10,20,00,47,8.40
2017,10,20,00,48,8.40
2017,10,20,00,49,8.40
2017,10,20,00,50,8.40
2017,10,20,00,51,8.40
2017,10,20,00,52,8.40
2017,10,20,00,53,8.40
2017,10,20,00,54,8.40
2017,10,20,00,55,8.40
2017,10,20,00,56,8.40
2017,10,20,00,57,8.40
2017,10,20,00,58,8.40
2017,10,20,00,59,8.40
2017,10,20,01,00,8.40
2017,10,20,01,01,8.40
2017,10,20,01,02,8.40
2017,10,20,01,03,8.40
2017,10,20,01,04,8.40
2017,10,20,01,05,8.40
2017,10,20,01,06,8.40
2017,10,20,01,07,8.40
2017,10,20,01,08,8.40
2017,10,20,01,09,8.40
2017,10,20,01,10,8.40
2017,10,20,01,11,8.50
2017,10,20,01,12,8.50
2017,10,20,01,13,8.50
2017,10,20,01,14,8.50
2017,10,20,01,15,8.50
2017,10,20,01,16,8.50
2017,10,20,01,17,8.50
2017,10,20,01,18,8.50
2017,10,20,01,19,8.50
2017,10,20,01,20,8.50
2017,10,20,01,21,8.50
2017,10,20,01,22,8.50
2017,10,20,01,23,8.50
2017,10,20,01,24,8.50
2017,10,20,01,25,8.50
2017,10,20,01,26,8.50
2017,10,20,01,27,8.50
2017,10,20,01,28,8.50
2017,10,20,01,29,8.50
2017,10,20,01,30,8.50
2017,10,20,01,31,8.50
2017,10,20,01,32,8.50
2017,10,20,01,33,8.50
2017,10,20,01,34,8.50
2017,10,20,01,35,8.50
2017,10,20,01,36,8.50
2017,10,20,01,37,8.50
2017,10,20,01,38,8.50
2017,10,20,01,39,8.50
2017,10,20,01,40,8.50
2017,10,20,01,41,8.50
2017,10,20,01,42,8.50
2017,10,20,01,43,8.50
2017,10,20,01,44,8.50
2017,10,20,01,45,8.50
2017,10,20,01,46,8.40
2017,10,20,01,47,8.40
2017,10,20,01,48,8.40
2017,10,20,01,49,8.50
2017,10,20,01,50,8.40
2017,10,20,01,51,8.40
2017,10,20,01,52,8.40
2017,10,20,01,53,8.40
2017,10,20,01,54,8.40
2017,10,20,01,55,8.50
2017,10,20,01,56,8.40
2017,10,20,01,57,8.40
2017,10,20,01,58,8.50
2017,10,20,01,59,8.50
2017,10,20,02,00,8.50
2017,10,20,02,01,8.50
2017,10,20,02,02,8.50
2017,10,20,02,03,8.50
2017,10,20,02,04,8.50
2017,10,20,02,05,8.50
2017,10,20,02,06,8.50
2017,10,20,02,07,8.50
2017,10,20,02,08,8.50
2017,10,20,02,09,8.50
2017,10,20,02,10,8.50
2017,10,20,02,11,8.50
2017,10,20,02,12,8.40
2017,10,20,02,13,8.40
2017,10,20,02,14,8.40
2017,10,20,02,15,8.40
2017,10,20,02,16,8.40
2017,10,20,02,17,8.40
2017,10,20,02,18,8.40
2017,10,20,02,19,8.40
2017,10,20,02,20,8.50
2017,10,20,02,21,8.50
2017,10,20,02,22,8.50
2017,10,20,02,23,8.50
2017,10,20,02,24,8.50
2017,10,20,02,25,8.50
2017,10,20,02,26,8.50
2017,10,20,02,27,8.50
2017,10,20,02,28,8.50
2017,10,20,02,29,8.50
2017,10,20,02,30,8.50
2017,10,20,02,31,8.50
2017,10,20,02,32,8.50
2017,10,20,02,33,8.50
2017,10,20,02,34,8.50
2017,10,20,02,35,8.50
2017,10,20,02,36,8.50
2017,10,20,02,37,8.50
2017,10,20,02,38,8.50
2017,10,20,02,39,8.50
2017,10,20,02,40,8.50
2017,10,20,02,41,8.50
2017,10,20,02,42,8.50
2017,10,20,02,43,8.50
2017,10,20,02,44,8.50
2017,10,20,02,45,8.50
2017,10,20,02,46,8.50
2017,10,20,02,47,8.50
2017,10,20,02,48,8.50
2017,10,20,02,49,8.50
2017,10,20,02,50,8.50
2017,10,20,02,51,8.50
2017,10,20,02,52,8.50
2017,10,20,02,53,8.50
2017,10,20,02,54,8.50
2017,10,20,02,55,8.50
2017,10,20,02,56,8.50
2017,10,20,02,57,8.50
2017,10,20,02,58,8.50
2017,10,20,02,59,8.50
2017,10,20,03,00,8.50
2017,10,20,03,01,8.50
2017,10,20,03,02,8.50
2017,10,20,03,03,8.50
2017,10,20,03,04,8.50
2017,10,20,03,05,8.50
2017,10,20,03,06,8.50
2017,10,20,03,07,8.50
2017,10,20,03,08,8.50
2017,10,20,03,09,8.50
2017,10,20,03,10,8.40
2017,10,20,03,11,8.50
2017,10,20,03,12,8.40
2017,10,20,03,13,8.40
2017,10,20,03,14,8.40
2017,10,20,03,15,8.40
2017,10,20,03,16,8.40
2017,10,20,03,17,8.40
2017,10,20,03,18,8.40
2017,10,20,03,19,8.40
2017,10,20,03,20,8.40
2017,10,20,03,21,8.40
2017,10,20,03,22,8.40
2017,10,20,03,23,8.40
2017,10,20,03,24,8.40
2017,10,20,03,25,8.40
2017,10,20,03,26,8.40
2017,10,20,03,27,8.40
2017,10,20,03,28,8.40
2017,10,20,03,29,8.40
2017,10,20,03,30,8.40
2017,10,20,03,31,8.40
2017,10,20,03,32,8.40
2017,10,20,03,33,8.40
2017,10,20,03,34,8.40
2017,10,20,03,35,8.40
2017,10,20,03,36,8.40
2017,10,20,03,37,8.40
2017,10,20,03,38,8.40
2017,10,20,03,39,8.40
2017,10,20,03,40,8.30
2017,10,20,03,41,8.30
2017,10,20,03,42,8.30
2017,10,20,03,43,8.30
2017,10,20,03,44,8.30
2017,10,20,03,45,8.30
2017,10,20,03,46,8.30
2017,10,20,03,47,8.30
2017,10,20,03,48,8.30
2017,10,20,03,49,8.30
2017,10,20,03,50,8.30
2017,10,20,03,51,8.30
2017,10,20,03,52,8.30
2017,10,20,03,53,8.30
2017,10,20,03,54,8.30
2017,10,20,03,55,8.20
2017,10,20,03,56,8.20
2017,10,20,03,57,8.20
2017,10,20,03,58,8.20
2017,10,20,03,59,8.20
2017,10,20,04,00,8.20
2017,10,20,04,01,8.20
2017,10,20,04,02,8.20
2017,10,20,04,03,8.20
2017,10,20,04,04,8.20
2017,10,20,04,05,8.20
2017,10,20,04,06,8.20
2017,10,20,04,07,8.20
2017,10,20,04,08,8.20
2017,10,20,04,09,8.20
2017,10,20,04,10,8.20
2017,10,20,04,11,8.20
2017,10,20,04,12,8.20
2017,10,20,04,13,8.20
2017,10,20,04,14,8.20
2017,10,20,04,15,8.20
2017,10,20,04,16,8.20
2017,10,20,04,17,8.20
2017,10,20,04,18,8.20
2017,10,20,04,19,8.20
2017,10,20,04,20,8.20
2017,10,20,04,21,8.20
2017,10,20,04,22,8.20
2017,10,20,04,23,8.20
2017,10,20,04,24,8.20
2017,10,20,04,25,8.20
2017,10,20,04,26,8.20
2017,10,20,04,27,8.20
2017,10,20,04,28,8.20
2017,10,20,04,29,8.20
2017,10,20,04,30,8.20
2017,10,20,04,31,8.20
2017,10,20,04,32,8.20
2017,10,20,04,33,8.20
2017,10,20,04,34,8.20
2017,10,20,04,35,8.20
2017,10,20,04,36,8.20
2017,10,20,04,37,8.20
2017,10,20,04,38,8.20
2017,10,20,04,39,8.20
2017,10,20,04,40,8.20
2017,10,20,04,41,8.20
2017,10,20,04,42,8.20
2017,10,20,04,43,8.20
2017,10,20,04,44,8.20
2017,10,20,04,45,8.20
2017,10,20,04,46,8.20
2017,10,20,04,47,8.20
2017,10,20,04,48,8.20
2017,10,20,04,49,8.20
2017,10,20,04,50,8.20
2017,10,20,04,51,8.20
2017,10,20,04,52,8.20
2017,10,20,04,53,8.20
2017,10,20,04,54,8.20
2017,10,20,04,55,8.20
2017,10,20,04,56,8.20
2017,10,20,04,57,8.20
2017,10,20,04,58,8.20
2017,10,20,04,59,8.20
2017,10,20,05,00,8.20
2017,10,20,05,01,8.20
2017,10,20,05,02,8.20
2017,10,20,05,03,8.20
2017,10,20,05,04,8.20
2017,10,20,05,05,8.20
2017,10,20,05,06,8.20
2017,10,20,05,07,8.20
2017,10,20,05,08,8.20
2017,10,20,05,09,8.20
2017,10,20,05,10,8.20
2017,10,20,05,11,8.20
2017,10,20,05,12,8.20
2017,10,20,05,13,8.20
2017,10,20,05,14,8.20
2017,10,20,05,15,8.10
2017,10,20,05,16,8.10
2017,10,20,05,17,8.10
2017,10,20,05,18,8.10
2017,10,20,05,19,8.10
2017,10,20,05,20,8.10
2017,10,20,05,21,8.10
2017,10,20,05,22,8.10
2017,10,20,05,23,8.10
2017,10,20,05,24,8.10
2017,10,20,05,25,8.00
2017,10,20,05,26,8.00
2017,10,20,05,27,8.00
2017,10,20,05,28,7.90
2017,10,20,05,29,7.90
2017,10,20,05,30,7.90
2017,10,20,05,31,7.80
2017,10,20,05,32,7.80
2017,10,20,05,33,7.80
2017,10,20,05,34,7.80
2017,10,20,05,35,7.80
2017,10,20,05,36,7.70
2017,10,20,05,37,7.70
2017,10,20,05,38,7.70
2017,10,20,05,39,7.70
2017,10,20,05,40,7.70
2017,10,20,05,41,7.70
2017,10,20,05,42,7.70
2017,10,20,05,43,7.60
2017,10,20,05,44,7.60
2017,10,20,05,45,7.60
2017,10,20,05,46,7.60
2017,10,20,05,47,7.60
2017,10,20,05,48,7.60
2017,10,20,05,49,7.60
2017,10,20,05,50,7.60
2017,10,20,05,51,7.60
2017,10,20,05,52,7.60
2017,10,20,05,53,7.60
2017,10,20,05,54,7.60
2017,10,20,05,55,7.60
2017,10,20,05,56,7.60
2017,10,20,05,57,7.60
2017,10,20,05,58,7.60
2017,10,20,05,59,7.60
2017,10,20,06,00,7.60
2017,10,20,06,01,7.60
2017,10,20,06,02,7.60
2017,10,20,06,03,7.60
2017,10,20,06,04,7.60
2017,10,20,06,05,7.60
2017,10,20,06,06,7.60
2017,10,20,06,07,7.60
2017,10,20,06,08,7.60
2017,10,20,06,09,7.60
2017,10,20,06,10,7.50
2017,10,20,06,11,7.50
2017,10,20,06,12,7.50
2017,10,20,06,13,7.50
2017,10,20,06,14,7.50
2017,10,20,06,15,7.60
2017,10,20,06,16,7.60
2017,10,20,06,17,7.60
2017,10,20,06,18,7.60
2017,10,20,06,19,7.60
2017,10,20,06,20,7.60
2017,10,20,06,21,7.60
2017,10,20,06,22,7.60
2017,10,20,06,23,7.60
2017,10,20,06,24,7.60
2017,10,20,06,25,7.60
2017,10,20,06,26,7.60
2017,10,20,06,27,7.60
2017,10,20,06,28,7.60
2017,10,20,06,29,7.60
2017,10,20,06,30,7.60
2017,10,20,06,31,7.70
2017,10,20,06,32,7.70
2017,10,20,06,33,7.70
2017,10,20,06,34,7.70
2017,10,20,06,35,7.70
2017,10,20,06,36,7.70
2017,10,20,06,37,7.70
2017,10,20,06,38,7.70
2017,10,20,06,39,7.70
2017,10,20,06,40,7.70
2017,10,20,06,41,7.70
2017,10,20,06,42,7.70
2017,10,20,06,43,7.70
2017,10,20,06,44,7.70
2017,10,20,06,45,7.70
2017,10,20,06,46,7.70
2017,10,20,06,47,7.60
2017,10,20,06,48,7.60
2017,10,20,06,49,7.60
2017,10,20,06,50,7.60
2017,10,20,06,51,7.60
2017,10,20,06,52,7.60
2017,10,20,06,53,7.60
2017,10,20,06,54,7.60
2017,10,20,06,55,7.60
2017,10,20,06,56,7.60
2017,10,20,06,57,7.60
2017,10,20,06,58,7.60
2017,10,20,06,59,7.60
2017,10,20,07,00,7.60
2017,10,20,07,01,7.60
2017,10,20,07,02,7.60
2017,10,20,07,03,7.60
2017,10,20,07,04,7.60
2017,10,20,07,05,7.60
2017,10,20,07,06,7.60
2017,10,20,07,07,7.50
2017,10,20,07,08,7.50
2017,10,20,07,09,7.50
2017,10,20,07,10,7.50
2017,10,20,07,11,7.50
2017,10,20,07,12,7.50
2017,10,20,07,13,7.50
2017,10,20,07,14,7.40
2017,10,20,07,15,7.40
2017,10,20,07,16,7.40
2017,10,20,07,17,7.40
2017,10,20,07,18,7.40
2017,10,20,07,19,7.40
2017,10,20,07,20,7.40
2017,10,20,07,21,7.40
2017,10,20,07,22,7.40
2017,10,20,07,23,7.40
2017,10,20,07,24,7.40
2017,10,20,07,25,7.40
2017,10,20,07,26,7.40
2017,10,20,07,27,7.40
2017,10,20,07,28,7.40
2017,10,20,07,29,7.40
2017,10,20,07,30,7.40
2017,10,20,07,31,7.40
2017,10,20,07,32,7.40
2017,10,20,07,33,7.40
2017,10,20,07,34,7.40
2017,10,20,07,35,7.40
2017,10,20,07,36,7.40
2017,10,20,07,37,7.40
2017,10,20,07,38,7.40
2017,10,20,07,39,7.40
2017,10,20,07,40,7.40
2017,10,20,07,41,7.40
2017,10,20,07,42,7.40
2017,10,20,07,43,7.40
2017,10,20,07,44,7.40
2017,10,20,07,45,7.40
2017,10,20,07,46,7.30
2017,10,20,07,47,7.30
2017,10,20,07,48,7.30
2017,10,20,07,49,7.30
2017,10,20,07,50,7.30
2017,10,20,07,51,7.30
2017,10,20,07,52,7.30
2017,10,20,07,53,7.30
2017,10,20,07,54,7.30
2017,10,20,07,55,7.30
2017,10,20,07,56,7.30
2017,10,20,07,57,7.30
2017,10,20,07,58,7.30
2017,10,20,07,59,7.30
2017,10,20,08,00,7.30
2017,10,20,08,01,7.30
2017,10,20,08,02,7.30
2017,10,20,08,03,7.30
2017,10,20,08,04,7.30
2017,10,20,08,05,7.30
2017,10,20,08,06,7.30
2017,10,20,08,07,7.40
2017,10,20,08,08,7.40
2017,10,20,08,09,7.40
2017,10,20,08,10,7.40
2017,10,20,08,11,7.40
2017,10,20,08,12,7.40
2017,10,20,08,13,7.40
2017,10,20,08,14,7.40
2017,10,20,08,15,7.40
2017,10,20,08,16,7.40
2017,10,20,08,17,7.40
2017,10,20,08,18,7.40
2017,10,20,08,19,7.40
2017,10,20,08,20,7.40
2017,10,20,08,21,7.40
2017,10,20,08,22,7.40
2017,10,20,08,23,7.40
2017,10,20,08,24,7.40
2017,10,20,08,25,7.40
2017,10,20,08,26,7.40
2017,10,20,08,27,7.30
2017,10,20,08,28,7.30
2017,10,20,08,29,7.30
2017,10,20,08,30,7.30
2017,10,20,08,31,7.30
2017,10,20,08,32,7.30
2017,10,20,08,33,7.30
2017,10,20,08,34,7.30
2017,10,20,08,35,7.30
2017,10,20,08,36,7.30
2017,10,20,08,37,7.30
2017,10,20,08,38,7.30
2017,10,20,08,39,7.30
2017,10,20,08,40,7.30
2017,10,20,08,41,7.30
2017,10,20,08,42,7.30
2017,10,20,08,43,7.30
2017,10,20,08,44,7.30
2017,10,20,08,45,7.30
2017,10,20,08,46,7.30
2017,10,20,08,47,7.30
2017,10,20,08,48,7.30
2017,10,20,08,49,7.40
2017,10,20,08,50,7.40
2017,10,20,08,51,7.40
2017,10,20,08,52,7.40
2017,10,20,08,53,7.40
2017,10,20,08,54,7.40
2017,10,20,08,55,7.40
2017,10,20,08,56,7.40
2017,10,20,08,57,7.40
2017,10,20,08,58,7.40
2017,10,20,08,59,7.40
2017,10,20,09,00,7.40
2017,10,20,09,01,7.40
2017,10,20,09,02,7.40
2017,10,20,09,03,7.50
2017,10,20,09,04,7.50
2017,10,20,09,05,7.50
2017,10,20,09,06,7.50
2017,10,20,09,07,7.50
2017,10,20,09,08,7.60
2017,10,20,09,09,7.60
2017,10,20,09,10,7.60
2017,10,20,09,11,7.60
2017,10,20,09,12,7.70
2017,10,20,09,13,7.70
2017,10,20,09,14,7.70
2017,10,20,09,15,7.70
2017,10,20,09,16,7.70
2017,10,20,09,17,7.70
2017,10,20,09,18,7.70
2017,10,20,09,19,7.80
2017,10,20,09,20,7.80
2017,10,20,09,21,7.80
2017,10,20,09,22,7.80
2017,10,20,09,23,7.80
2017,10,20,09,24,7.80
2017,10,20,09,25,7.80
2017,10,20,09,26,7.80
2017,10,20,09,27,7.80
2017,10,20,09,28,7.80
2017,10,20,09,29,7.80
2017,10,20,09,30,7.90
2017,10,20,09,31,7.90
2017,10,20,09,32,7.90
2017,10,20,09,33,7.90
2017,10,20,09,34,7.90
2017,10,20,09,35,7.90
2017,10,20,09,36,7.90
2017,10,20,09,37,7.90
2017,10,20,09,38,7.90
2017,10,20,09,39,7.90
2017,10,20,09,40,7.90
2017,10,20,09,41,8.00
2017,10,20,09,42,8.00
2017,10,20,09,43,8.00
2017,10,20,09,44,8.00
2017,10,20,09,45,8.00
2017,10,20,09,46,8.00
2017,10,20,09,47,8.00
2017,10,20,09,48,8.00
2017,10,20,09,49,8.00
2017,10,20,09,50,8.00
2017,10,20,09,51,8.00
2017,10,20,09,52,8.00
2017,10,20,09,53,8.00
2017,10,20,09,54,8.00
2017,10,20,09,55,8.00
2017,10,20,09,56,8.00
2017,10,20,09,57,8.00
2017,10,20,09,58,8.00
2017,10,20,09,59,8.00
2017,10,20,10,00,8.00
2017,10,20,10,01,8.00
2017,10,20,10,02,8.00
2017,10,20,10,03,8.00
2017,10,20,10,04,7.90
2017,10,20,10,05,7.90
2017,10,20,10,06,7.90
2017,10,20,10,07,7.90
2017,10,20,10,08,7.90
2017,10,20,10,09,7.90
2017,10,20,10,10,7.90
2017,10,20,10,11,7.90
2017,10,20,10,12,7.90
2017,10,20,10,13,7.90
2017,10,20,10,14,8.00
2017,10,20,10,15,8.00
2017,10,20,10,16,8.00
2017,10,20,10,17,8.10
2017,10,20,10,18,8.10
2017,10,20,10,19,8.10
2017,10,20,10,20,8.10
2017,10,20,10,21,8.20
2017,10,20,10,22,8.20
2017,10,20,10,23,8.20
2017,10,20,10,24,8.20
2017,10,20,10,25,8.30
2017,10,20,10,26,8.30
2017,10,20,10,27,8.30
2017,10,20,10,28,8.30
2017,10,20,10,29,8.30
2017,10,20,10,30,8.30
2017,10,20,10,31,8.30
2017,10,20,10,32,8.30
2017,10,20,10,33,8.30
2017,10,20,10,34,8.30
2017,10,20,10,35,8.30
2017,10,20,10,36,8.30
2017,10,20,10,37,8.30
2017,10,20,10,38,8.30
2017,10,20,10,39,8.20
2017,10,20,10,40,8.20
2017,10,20,10,41,8.20
2017,10,20,10,42,8.20
2017,10,20,10,43,8.20
2017,10,20,10,44,8.20
2017,10,20,10,45,8.20
2017,10,20,10,46,8.20
2017,10,20,10,47,8.20
2017,10,20,10,48,8.20
2017,10,20,10,49,8.20
2017,10,20,10,50,8.20
2017,10,20,10,51,8.30
2017,10,20,10,52,8.30
2017,10,20,10,53,8.30
2017,10,20,10,54,8.30
2017,10,20,10,55,8.30
2017,10,20,10,56,8.30
2017,10,20,10,57,8.30
2017,10,20,10,58,8.40
2017,10,20,10,59,8.40
2017,10,20,11,00,8.30
2017,10,20,11,01,8.30
2017,10,20,11,02,8.30
2017,10,20,11,03,8.40
2017,10,20,11,04,8.40
2017,10,20,11,05,8.40
2017,10,20,11,06,8.40
2017,10,20,11,07,8.40
2017,10,20,11,08,8.40
2017,10,20,11,09,8.30
2017,10,20,11,10,8.30
2017,10,20,11,11,8.30
2017,10,20,11,12,8.30
2017,10,20,11,13,8.30
2017,10,20,11,14,8.30
2017,10,20,11,15,8.30
2017,10,20,11,16,8.30
2017,10,20,11,17,8.30
2017,10,20,11,18,8.40
2017,10,20,11,19,8.40
2017,10,20,11,20,8.40
2017,10,20,11,21,8.40
2017,10,20,11,22,8.40
2017,10,20,11,23,8.50
2017,10,20,11,24,8.50
2017,10,20,11,25,8.60
2017,10,20,11,26,8.60
2017,10,20,11,27,8.60
2017,10,20,11,28,8.70
2017,10,20,11,29,8.70
2017,10,20,11,30,8.70
2017,10,20,11,31,8.70
2017,10,20,11,32,8.70
2017,10,20,16,31,11.30
2017,10,20,16,32,11.30
2017,10,20,16,33,11.20
2017,10,20,16,34,11.20
2017,10,20,16,35,11.10
2017,10,20,16,36,11.10
2017,10,20,16,37,11.10
2017,10,20,16,38,11.10
2017,10,20,16,39,11.00
2017,10,20,16,40,11.00
2017,10,20,16,41,10.90
2017,10,20,16,42,10.90
2017,10,20,16,43,10.80
2017,10,20,16,44,10.80
2017,10,20,16,45,10.80
2017,10,20,16,46,10.70
2017,10,20,16,47,10.70
2017,10,20,16,48,10.70
2017,10,20,16,49,10.70
2017,10,20,16,50,10.70
2017,10,20,16,51,10.70
2017,10,20,16,52,10.70
2017,10,20,16,53,10.60
2017,10,20,16,54,10.60
2017,10,20,16,55,10.60
2017,10,20,16,56,10.60
2017,10,20,16,57,10.50
2017,10,20,16,58,10.50
2017,10,20,16,59,10.50
2017,10,20,17,00,10.50
2017,10,20,17,01,10.50
2017,10,20,17,02,10.40
2017,10,20,17,03,10.40
2017,10,20,17,04,10.40
2017,10,20,17,05,10.40
2017,10,20,17,06,10.40
2017,10,20,17,07,10.40
2017,10,20,17,08,10.40
2017,10,20,17,09,10.40
2017,10,20,17,10,10.40
2017,10,20,17,11,10.40
2017,10,20,17,12,10.30
2017,10,20,17,13,10.30
2017,10,20,17,14,10.20
2017,10,20,17,15,10.20
2017,10,20,17,16,10.10
2017,10,20,17,17,10.10
2017,10,20,17,18,10.10
2017,10,20,17,19,10.10
2017,10,20,17,20,10.10
2017,10,20,17,21,10.00
2017,10,20,17,22,10.00
2017,10,20,17,23,10.00
2017,10,20,17,24,10.00
2017,10,20,17,25,9.90
2017,10,20,17,26,9.90
2017,10,20,17,27,9.90
2017,10,20,17,28,9.90
2017,10,20,17,29,9.90
2017,10,20,17,30,9.80
2017,10,20,17,31,9.80
2017,10,20,17,32,9.70
2017,10,20,17,33,9.70
2017,10,20,17,34,9.60
2017,10,20,17,35,9.60
2017,10,20,17,36,9.50
2017,10,20,17,37,9.50
2017,10,20,17,38,9.40
2017,10,20,17,39,9.40
2017,10,20,17,40,9.30
2017,10,20,17,41,9.30
2017,10,20,17,42,9.30
2017,10,20,17,43,9.30
2017,10,20,17,44,9.30
2017,10,20,17,45,9.20
2017,10,20,17,46,9.20
2017,10,20,17,47,9.20
2017,10,20,17,48,9.20
2017,10,20,17,49,9.20
2017,10,20,17,50,9.10
2017,10,20,17,51,9.10
2017,10,20,17,52,9.00
2017,10,20,17,53,9.00
2017,10,20,17,54,8.90
2017,10,20,17,55,8.90
2017,10,20,17,56,8.90
2017,10,20,17,57,8.90
2017,10,20,17,58,8.80
2017,10,20,17,59,8.80
2017,10,20,18,00,8.80
2017,10,20,18,01,8.70
2017,10,20,18,02,8.70
2017,10,20,18,03,8.70
2017,10,20,18,04,8.70
2017,10,20,18,05,8.60
2017,10,20,18,06,8.50
2017,10,20,18,07,8.50
2017,10,20,18,08,8.40
2017,10,20,18,09,8.40
2017,10,20,18,10,8.40
2017,10,20,18,11,8.30
2017,10,20,18,12,8.30
2017,10,20,18,13,8.30
2017,10,20,18,14,8.30
2017,10,20,18,15,8.30
2017,10,20,18,16,8.30
2017,10,20,18,17,8.30
2017,10,20,18,18,8.30
2017,10,20,18,19,8.30
2017,10,20,18,20,8.20
2017,10,20,18,21,8.20
2017,10,20,18,22,8.20
2017,10,20,18,23,8.20
2017,10,20,18,24,8.20
2017,10,20,18,25,8.20
2017,10,20,18,26,8.20
2017,10,20,18,27,8.10
2017,10,20,18,28,8.10
2017,10,20,18,29,8.10
2017,10,20,18,30,8.10
2017,10,20,18,31,8.00
2017,10,20,18,32,8.00
2017,10,20,18,33,8.00
2017,10,20,18,34,8.00
2017,10,20,18,35,7.90
2017,10,20,18,36,7.90
2017,10,20,18,37,7.90
2017,10,20,18,38,7.90
2017,10,20,18,39,7.90
2017,10,20,18,40,7.90
2017,10,20,18,41,7.90
2017,10,20,18,42,8.00
2017,10,20,18,43,8.00
2017,10,20,18,44,8.00
2017,10,20,18,45,8.00
2017,10,20,18,46,7.90
2017,10,20,18,47,7.90
2017,10,20,18,48,7.90
2017,10,20,18,49,7.80
2017,10,20,18,50,7.80
2017,10,20,18,51,7.80
2017,10,20,18,52,7.80
2017,10,20,18,53,7.80
2017,10,20,18,54,7.70
2017,10,20,18,55,7.70
2017,10,20,18,56,7.70
2017,10,20,18,57,7.70
2017,10,20,18,58,7.70
2017,10,20,18,59,7.70
2017,10,20,19,00,7.70
2017,10,20,19,01,7.70
2017,10,20,19,02,7.60
2017,10,20,19,03,7.60
2017,10,20,19,04,7.60
2017,10,20,19,05,7.60
2017,10,20,19,06,7.60
2017,10,20,19,07,7.60
2017,10,20,19,08,7.60
2017,10,20,19,09,7.60
2017,10,20,19,10,7.50
2017,10,20,19,11,7.50
2017,10,20,19,12,7.50
2017,10,20,19,13,7.50
2017,10,20,19,14,7.50
2017,10,20,19,15,7.40
2017,10,20,19,16,7.40
2017,10,20,19,17,7.40
2017,10,20,19,18,7.40
2017,10,20,19,19,7.40
2017,10,20,19,20,7.30
2017,10,20,19,21,7.30
2017,10,20,19,22,7.30
2017,10,20,19,23,7.30
2017,10,20,19,24,7.30
2017,10,20,19,25,7.30
2017,10,20,19,26,7.30
2017,10,20,19,27,7.30
2017,10,20,19,28,7.20
2017,10,20,19,29,7.20
2017,10,20,19,30,7.20
2017,10,20,19,31,7.20
2017,10,20,19,32,7.20
2017,10,20,19,33,7.20
2017,10,20,19,34,7.20
2017,10,20,19,35,7.20
2017,10,20,19,36,7.20
2017,10,20,19,37,7.20
2017,10,20,19,38,7.20
2017,10,20,19,39,7.20
2017,10,20,19,40,7.20
2017,10,20,19,41,7.20
2017,10,20,19,42,7.20
2017,10,20,19,43,7.20
2017,10,20,19,44,7.10
2017,10,20,19,45,7.10
2017,10,20,19,46,7.10
2017,10,20,19,47,7.10
2017,10,20,19,48,7.10
2017,10,20,19,49,7.10
2017,10,20,19,50,7.10
2017,10,20,19,51,7.00
2017,10,20,19,52,7.00
2017,10,20,19,53,7.00
2017,10,20,19,54,7.00
2017,10,20,19,55,7.00
2017,10,20,19,56,7.00
2017,10,20,19,57,7.00
2017,10,20,19,58,7.00
2017,10,20,19,59,7.00
2017,10,20,20,00,7.00
2017,10,20,20,01,6.90
2017,10,20,20,02,6.90
2017,10,20,20,03,6.90
2017,10,20,20,04,6.90
2017,10,20,20,05,6.90
2017,10,20,20,06,6.90
2017,10,20,20,07,6.90
2017,10,20,20,08,6.90
2017,10,20,20,09,6.90
2017,10,20,20,10,6.90
2017,10,20,20,11,6.80
2017,10,20,20,12,6.80
2017,10,20,20,13,6.80
2017,10,20,20,14,6.80
2017,10,20,20,15,6.80
2017,10,20,20,16,6.80
2017,10,20,20,17,6.80
2017,10,20,20,18,6.80
2017,10,20,20,19,6.80
2017,10,20,20,20,6.70
2017,10,20,20,21,6.70
2017,10,20,20,22,6.70
2017,10,20,20,23,6.70
2017,10,20,20,24,6.70
2017,10,20,20,25,6.70
2017,10,20,20,26,6.70
2017,10,20,20,27,6.70
2017,10,20,20,28,6.70
2017,10,20,20,29,6.70
2017,10,20,20,30,6.70
2017,10,20,20,31,6.70
2017,10,20,20,32,6.70
2017,10,20,20,33,6.70
2017,10,20,20,34,6.70
2017,10,20,20,35,6.70
2017,10,20,20,36,6.70
2017,10,20,20,37,6.70
2017,10,20,20,38,6.70
2017,10,20,20,39,6.70
2017,10,20,20,40,6.70
2017,10,20,20,41,6.70
2017,10,20,20,42,6.60
2017,10,20,20,43,6.60
2017,10,20,20,44,6.60
2017,10,20,20,45,6.60
2017,10,20,20,46,6.60
2017,10,20,20,47,6.60
2017,10,20,20,48,6.60
2017,10,20,20,49,6.60
2017,10,20,20,50,6.60
2017,10,20,20,51,6.60
2017,10,20,20,52,6.60
2017,10,20,20,53,6.60
2017,10,20,20,54,6.60
2017,10,20,20,55,6.60
2017,10,20,20,56,6.60
2017,10,20,20,57,6.60
2017,10,20,20,58,6.60
2017,10,20,20,59,6.60
2017,10,20,21,00,6.60
2017,10,20,21,01,6.60
2017,10,20,21,02,6.60
2017,10,20,21,03,6.50
2017,10,20,21,04,6.50
2017,10,20,21,05,6.50
2017,10,20,21,06,6.50
2017,10,20,21,07,6.50
2017,10,20,21,08,6.50
2017,10,20,21,09,6.50
2017,10,20,21,10,6.50
2017,10,20,21,11,6.50
2017,10,20,21,12,6.50
2017,10,20,21,13,6.50
2017,10,20,21,14,6.50
2017,10,20,21,15,6.50
2017,10,20,21,16,6.50
2017,10,20,21,17,6.50
2017,10,20,21,18,6.50
2017,10,20,21,19,6.50
2017,10,20,21,20,6.50
2017,10,20,21,21,6.50
2017,10,20,21,22,6.50
2017,10,20,21,23,6.50
2017,10,20,21,24,6.50
2017,10,20,21,25,6.50
2017,10,20,21,26,6.50
2017,10,20,21,27,6.40
2017,10,20,21,28,6.40
2017,10,20,21,29,6.40
2017,10,20,21,30,6.40
2017,10,20,21,31,6.40
2017,10,20,21,32,6.30
2017,10,20,21,33,6.30
2017,10,20,21,34,6.30
2017,10,20,21,35,6.40
2017,10,20,21,36,6.40
2017,10,20,21,37,6.40
2017,10,20,21,38,6.30
2017,10,20,21,39,6.30
2017,10,20,21,40,6.30
2017,10,20,21,41,6.30
2017,10,20,21,42,6.30
2017,10,20,21,43,6.30
2017,10,20,21,44,6.30
2017,10,20,21,45,6.30
2017,10,20,21,46,6.30
2017,10,20,21,47,6.30
2017,10,20,21,48,6.30
2017,10,20,21,49,6.30
2017,10,20,21,50,6.30
2017,10,20,21,51,6.30
2017,10,20,21,52,6.30
2017,10,20,21,53,6.30
2017,10,20,21,54,6.30
2017,10,20,21,55,6.40
2017,10,20,21,56,6.40
2017,10,20,21,57,6.40
2017,10,20,21,58,6.40
2017,10,20,21,59,6.40
2017,10,20,22,00,6.40
2017,10,20,22,01,6.40
2017,10,20,22,02,6.40
2017,10,20,22,03,6.40
2017,10,20,22,04,6.40
2017,10,20,22,05,6.40
2017,10,20,22,06,6.40
2017,10,20,22,07,6.40
2017,10,20,22,08,6.40
2017,10,20,22,09,6.40
2017,10,20,22,10,6.40
2017,10,20,22,11,6.40
2017,10,20,22,12,6.50
2017,10,20,22,13,6.50
2017,10,20,22,14,6.50
2017,10,20,22,15,6.50
2017,10,20,22,16,6.50
2017,10,20,22,17,6.60
2017,10,20,22,18,6.60
2017,10,20,22,19,6.60
2017,10,20,22,20,6.60
2017,10,20,22,21,6.60
2017,10,20,22,22,6.60
2017,10,20,22,23,6.60
2017,10,20,22,24,6.60
2017,10,20,22,25,6.60
2017,10,20,22,26,6.60
2017,10,20,22,27,6.60
2017,10,20,22,28,6.60
2017,10,20,22,29,6.50
2017,10,20,22,30,6.50
2017,10,20,22,31,6.50
2017,10,20,22,32,6.50
2017,10,20,22,33,6.50
2017,10,20,22,34,6.50
2017,10,20,22,35,6.50
2017,10,20,22,36,6.50
2017,10,20,22,37,6.50
2017,10,20,22,38,6.50
2017,10,20,22,39,6.50
2017,10,20,22,40,6.50
2017,10,20,22,41,6.50
2017,10,20,22,42,6.50
2017,10,20,22,43,6.50
2017,10,20,22,44,6.50
2017,10,20,22,45,6.50
2017,10,20,22,46,6.50
2017,10,20,22,47,6.60
2017,10,20,22,48,6.60
2017,10,20,22,49,6.60
2017,10,20,22,50,6.60
2017,10,20,22,51,6.60
2017,10,20,22,52,6.60
2017,10,20,22,53,6.60
2017,10,20,22,54,6.60
2017,10,20,22,55,6.60
2017,10,20,22,56,6.60
2017,10,20,22,57,6.60
2017,10,20,22,58,6.60
2017,10,20,22,59,6.60
2017,10,20,23,00,6.50
2017,10,20,23,01,6.60
2017,10,20,23,02,6.50